Torna al catalogo

VIREON-2

AttivoScienzaSSO
NORAD 68421·PAYLOAD·🇬🇧 United Kingdom

Lanciato Mar 30, 2026 da Vandenberg Space Force Base

Loading…

Prossimi Passaggi (prossime 24 ore)

TLE

AggiornatoSource: Space-Track

Epoca: Sep 13, 2026, 20:11 UTC

1 68421U 26067F   26256.84144238  .00003376  00000-0  16289-3 0  9995
2 68421  97.4620 214.1900 0001114  59.2419 300.8926 15.19370447 25405

Traccia VIREON-2 in tempo reale con AllMySat

Download on the App Store